Weather History for Elkins, WV

Change the Weather History Date:

Thursday, February 14, 2013

  Actual Average Record
Temperature  
Mean Temperature 35 °F 32 °F  
Max Temperature 42 °F 43 °F 66 °F (1911)
Min Temperature 28 °F 21 °F -6 °F (1916)
Degree Days  
Heating Degree Days 30 33  
Month to date heating degree days 496 478  
Since 1 July heating degree days 3749 3879  
Cooling Degree Days 0 0  
Month to date cooling degree days 0 0  
Year to date cooling degree days 0 0  
Moisture  
Dew Point 24 °F    
Average Humidity 71    
Maximum Humidity 92    
Minimum Humidity 49    
Precipitation  
Precipitation T in 0.11 in 1.03 in (1984)
Month to date precipitation 1.24 1.50  
Year to date precipitation 5.75 4.73  
Snow  
Snow 0.00 in - - ()
Month to date snowfall 13.2  
Since 1 September snowfall 51.3  
Snow Depth 2.00 in    
Sea Level Pressure  
Sea Level Pressure 29.99 in    
Wind  
Wind Speed 4 mph (SSW)    
Max Wind Speed 17 mph    
Max Gust Speed 23 mph    
Visibility 10 miles    
Events      
T = Trace of Precipitation, MM = Missing Value Source: NWS Daily Summary

Daily Weather History Graph

Daily Weather History Graph

Search for Another Location

Airport:

Trip Planner

Search our weather history database for the weather conditions in past years. The results will help you decide how hot, cold, wet, or windy it might be!

Date:

Astronomy

Feb. 14, 2013 Rise Set
Actual Time 7:11 AM EST 5:56 PM EST
Civil Twilight 6:44 AM EST 6:23 PM EST
Nautical Twilight 6:13 AM EST 6:54 PM EST
Astronomical Twilight 5:42 AM EST 7:25 PM EST
Moon 9:15 AM EST (2/14) 10:53 PM EST (2/14)
Length of Visible Light 11h 39m
Length of Day
10h 44m
Waxing Crescent, 21% of the Moon is Illuminated
Feb 14
Waxing Crescent
Feb 17
First Quarter
Feb 25
Full
Mar 4
Last Quarter
Mar 11
New

Hourly Weather History & Observations

Time (EST) Temp. Windchill Dew Point Humidity Pressure Visibility Wind Dir Wind Speed Gust Speed Precip Events Conditions
12:51 AM 30.9 °F 20.2 °F 25.0 °F 79% 29.92 in 10.0 mi WNW 15.0 mph 23.0 mph N/A   Overcast
1:12 AM 30.2 °F 20.8 °F 24.8 °F 80% 29.86 in 10.0 mi West 11.5 mph 20.7 mph N/A   Overcast
2:51 AM 30.0 °F 23.2 °F 24.1 °F 79% 29.95 in 10.0 mi West 6.9 mph - N/A   Overcast
3:51 AM 28.4 °F 20.4 °F 23.0 °F 80% 29.91 in 10.0 mi WNW 8.1 mph - N/A   Overcast
4:51 AM 28.9 °F 21.9 °F 21.9 °F 75% 30.00 in 10.0 mi West 6.9 mph - N/A   Overcast
5:51 AM 28.9 °F 25.2 °F 21.9 °F 75% 30.01 in 10.0 mi South 3.5 mph - N/A   Overcast
6:51 AM 28.0 °F 24.2 °F 23.0 °F 81% 30.02 in 10.0 mi SSE 3.5 mph - N/A   Overcast
7:33 AM 28.4 °F - 21.2 °F 74% 29.95 in 10.0 mi Calm Calm - N/A   Overcast
7:51 AM 28.0 °F - 23.0 °F 81% 30.03 in 10.0 mi Calm Calm - N/A   Overcast
8:48 AM 28.4 °F - 24.8 °F 86% 29.96 in 10.0 mi Calm Calm - N/A   Overcast
8:51 AM 28.9 °F - 24.1 °F 82% 30.03 in 10.0 mi Calm Calm - N/A   Overcast
9:51 AM 30.9 °F 27.5 °F 24.1 °F 76% 30.03 in 10.0 mi ESE 3.5 mph - N/A   Overcast
10:51 AM 32.0 °F 28.7 °F 25.0 °F 75% 30.03 in 10.0 mi SSE 3.5 mph - N/A   Overcast
11:51 AM 34.0 °F 31.0 °F 26.1 °F 73% 30.04 in 10.0 mi South 3.5 mph - N/A   Overcast
12:51 PM 35.1 °F 31.0 °F 26.1 °F 70% 30.02 in 10.0 mi Variable 4.6 mph - N/A   Overcast
1:51 PM 37.0 °F 31.6 °F 26.1 °F 65% 30.00 in 10.0 mi South 6.9 mph - N/A   Mostly Cloudy
2:02 PM 37.4 °F - 24.8 °F 60% 29.93 in 10.0 mi Calm Calm - N/A   Mostly Cloudy
2:51 PM 39.0 °F 34.8 °F 26.1 °F 60% 29.97 in 10.0 mi SSE 5.8 mph - N/A   Partly Cloudy
3:51 PM 41.0 °F 38.0 °F 24.1 °F 51% 29.95 in 10.0 mi SSW 4.6 mph - N/A   Overcast
4:51 PM 42.1 °F 38.4 °F 24.1 °F 49% 29.96 in 10.0 mi South 5.8 mph - N/A   Mostly Cloudy
5:51 PM 39.9 °F 36.7 °F 25.0 °F 55% 29.98 in 10.0 mi South 4.6 mph - N/A   Partly Cloudy
6:51 PM 34.0 °F - 25.0 °F 70% 30.00 in 10.0 mi Calm Calm - N/A   Partly Cloudy
7:51 PM 30.0 °F - 25.0 °F 82% 30.02 in 10.0 mi Calm Calm - N/A   Partly Cloudy
8:51 PM 28.9 °F 25.2 °F 26.1 °F 89% 30.03 in 10.0 mi SE 3.5 mph - N/A   Mostly Cloudy
9:51 PM 28.9 °F - 25.0 °F 85% 30.01 in 9.0 mi Calm Calm - N/A   Clear
10:51 PM 28.9 °F - 25.0 °F 85% 30.00 in 10.0 mi Calm Calm - N/A   Clear
11:51 PM 30.0 °F 26.5 °F 26.1 °F 85% 30.01 in 10.0 mi Variable 3.5 mph - 0.00 in   Mostly Cloudy